Regional Weather Roundup
Issued by NWS

Home | Current Version | Previous Version | Text Only | Print | Product List | Glossary Off
Versions: 1 2 3 4 5 6 7 8 9 10 11 12 13 14 15 16 17 18 19 20 21 22 23 24 25 26 27 28

000
ASUS45 KSLC 220110
RWRUT

UTAH REGIONAL WEATHER ROUNDUP
NATIONAL WEATHER SERVICE SALT LAKE CITY UT
700 PM MDT SAT APR 21 2018

UTZ001>011-023>025-220200-

NORTHERN UTAH

CITY           SKY/WX    TMP DP  RH WIND       PRES   REMARKS
BRIGHAM CITY   SUNNY     67  23  19 S3        30.13S
HILL AFB       SUNNY     64  26  24 CALM      30.14F
LOGAN          SUNNY     72  32  23 CALM      30.10F
OGDEN          SUNNY     65  25  22 W5        30.12F
SALT LAKE CITY MOSUNNY   68  22  17 W7        30.13S
TOOELE VALLEY  SUNNY     66  28  24 CALM      30.15S
WENDOVER       SUNNY     72  23  16 SE8       30.10F
HEBER CITY       N/A     63  23  22 NW6       30.14R
WEST JORDAN    SUNNY     64  28  26 N9        30.15S

$$

UTZ011>015-024>027-220200-

CENTRAL/NORTHEAST UTAH

CITY           SKY/WX    TMP DP  RH WIND       PRES   REMARKS
PROVO AIRPORT  SUNNY     64  35  34 NW7       30.14F
MOAB/CANYONLAN SUNNY     67  31  26 CALM      30.07S
DELTA          SUNNY     66  16  14 NW3       30.15F
PRICE          SUNNY     66  26  22 NW13G21   30.11S
ROOSEVELT      SUNNY     64  32  29 E5        30.11S
VERNAL         SUNNY     64  34  32 CALM      30.09F

$$

UTZ013>016-019>022-027-220200-

SOUTHERN UTAH

CITY           SKY/WX    TMP DP  RH WIND       PRES   REMARKS
BRYCE CANYON   SUNNY     58  24  27 NW16      30.23R
CEDAR CITY     SUNNY     64  22  20 N8        30.16F
MILFORD        SUNNY     66  28  24 NE8       30.15F
ST GEORGE      CLEAR     82  23  11 NE9       30.00F
HANKSVILLE     MOSUNNY   72  28  20 SE9       30.08S
BLANDING         N/A     64  26  24 NE10      30.20S

$$

REGIONAL REPORTS     COLORADO/ARIZONA

CITY           SKY/WX    TMP DP  RH WIND       PRES   REMARKS
CRAIG, CO        N/A     55  36  48 SW3       30.16S
GRAND JUNCTION SUNNY     62  33  33 E10       30.13S
RIFLE, CO      CLEAR     55  36  48 E5        30.18S
MONTROSE, CO   MOCLDY    55  32  41 SE6       30.21R
CORTEZ, CO     CLEAR     61  27  27 N13       30.14R
COLORADO CITY    N/A     72  21  15 NW12G21   30.13S
PAGE, AZ       SUNNY     73  25  16 N8        30.05S
GRAND CANYON   SUNNY     63  25  23 NW5       30.20S
KINGMAN, AZ    SUNNY     79  22  12 MISG      30.02F
FLAGSTAFF, AZ  SUNNY     62  21  20 E10       30.19S

$$

REGIONAL REPORTS    NEVADA/IDAHO/WYOMING

CITY           SKY/WX    TMP DP  RH WIND       PRES   REMARKS
LAS VEGAS, NV  SUNNY     84  26  12 N7        29.97F
ELY, NY        SUNNY     67  17  14 NE8       30.16F
ELKO, NV       SUNNY     69  30  23 W10       30.13F
POCATELLO, ID  SUNNY     68  32  26 W26       30.10S
BURLEY, ID     SUNNY     66  32  28 W13       30.10S
FORT BRIDGER,    N/A     60  17  18 NW17G25   30.21R
EVANSTON, WY   SUNNY     58  23  26 NW8       30.21R
ROCK SPRINGS,  SUNNY     63  14  15 NW17      30.10R
KEMMERER, WY   SUNNY     55  23  28 W20G26    30.19S

$$




USA.gov is the U.S. government's official web portal to all federal, state and local government web resources and services.